Current weather by "City, St" or "zip code"  
 

Current Conditions: Bennington Morse State Airport, VT

Fair


41.0 F

Last Updated on Oct 31 2020, 2:54 pm EDT
Humidity: 47%
Wind Speed: SW 4.6 mph
Barometer 30.44 in
Dewpoint: 21.9 F
Visibility: 10.00 mi
Precip: --
Heat Index: NA
Wind Chill: 38 F
Current conditions at:

Bennington Morse State Airport, VT (KDDH)

Lat: 42.89355 Lon: 73.2486

Local Radar Image active severe weather and emergency alerts image image weather storm and storm spotter reports image weather observation monitoring service image
Local
Radar
Active
Alerts
Storm Reports Obs
Monitoring

Sign-up For Email & Text Message Weather Alert Notification Services



Advertise Here

Observation History for Bennington Morse State Airport, VT


Time Wind
(mph)
Vis
(mi)
Weather Precip (in) Temperature (F) Relative
Humidity
Wind
Chill
(F)
Heat
Index
(F)
Pressure
Air Dwpt altimeter
(in)
sea level
(mb)
Rmks
2:54 pm EDT SW 4.6 10.00 Fair -- 41.0 21.9 47% 38 NA 30.44 1031.9
1:54 pm EDT N 0.0 10.00 Fair -- 40.0 26.1 58% NA NA 30.46 1032.5
12:54 pm EDT N 0.0 10.00 Fair -- 37.0 25.0 62% NA NA 30.48 1033.1
11:54 am EDT N 0.0 10.00 Fair -- 35.0 26.1 70% NA NA 30.51 1034.0
10:54 am EDT N 0.0 10.00 Fair -- 32.0 26.1 79% NA NA 30.50 1034.0
9:54 am EDT N 0.0 10.00 Fair -- 28.0 24.1 85% NA NA 30.51 1034.2
8:54 am EDT N 0.0 10.00 Fair -- 24.0 21.9 91% NA NA 30.49 1033.5
7:54 am EDT N 0.0 10.00 Fair -- 18.0 14.0 84% NA NA 30.45 1032.4
6:54 am EDT N 0.0 10.00 Fair -- 17.0 14.0 88% NA NA 30.42 1031.5
5:54 am EDT N 0.0 10.00 Fair -- 19.0 15.1 84% NA NA 30.40 1030.6
4:54 am EDT N 0.0 10.00 Fair -- 20.0 16.0 85% NA NA 30.37 1029.6
3:54 am EDT N 0.0 10.00 Fair -- 21.0 17.1 85% NA NA 30.35 1028.7
2:54 am EDT N 0.0 10.00 Fair -- 21.0 18.0 88% NA NA 30.34 1028.6

Regional Weather Observation


Bennington Morse State Airport, VT (KDDH)

Fair
41.0 F

Schenectady Airport, NY (KSCH)

Fair
43.0 F

Albany International Airport, NY (KALB)

A Few Clouds
39.0 F

North Adams Harriman-and-West Airport, MA (KAQW)

Fair
41.0 F

Pittsfield Municipal Airport, MA (KPSF)

Fair
41.0 F

Rutland-Southern Vermont Regional Airport, VT (KRUT)

Fair
40.0 F